Preview of NWS' New Version of Forecast
This preview is not operational and should not be used for support decisions.

Regional Weather Roundup (RWR)

Issued by Gray - Portland, ME (GYX)

                            
000
ASUS41 KGYX 241610
RWRGYX
WEATHER ROUNDUP FOR MAINE AND NEW HAMPSHIRE
NATIONAL WEATHER SERVICE GRAY ME
1200 PM EDT FRI MAY 24 2019

MEZ002-005-006-010-012-015-018-020-021-024-026-027-029-241700-
MAINE
  
CITY           SKY/WX    TMP DP  RH WIND       PRES   REMARKS
PORTLAND       CLOUDY    59  46  62 N25G36    29.76R                  
SANFORD        CLOUDY    61  48  62 N12G21    29.75R                  
BAR HARBOR     CLOUDY    49  47  93 NE13G23   29.72R                  
WISCASSET      CLOUDY    53  47  79 VRB7      29.76R                  
ROCKLAND       CLOUDY    50  46  86 N12G18    29.72R                  
FRYEBURG       CLOUDY    59  46  62 N10G26    29.80R                  
LEWISTONAUBURN CLOUDY    54  45  71 N26G36    29.79R                  
AUGUSTA        LGT RAIN  51  49  92 N16       29.79R FOG              
WATERVILLE     CLOUDY    52  48  87 N18G29    29.76R                  
BANGOR         LGT RAIN  52  49  89 N16G23    29.77R FOG              
GREENVILLE       N/A     49  44  83 NE13G18   29.83R                  
MILLINOCKET    CLOUDY    54  46  74 NE10G22   29.84R                  
HOULTON        CLOUDY    54  43  66 NE16      29.84R                  
PRESQUE ISLE   CLOUDY    54  44  69 NE14G22   29.91R                  
FRENCHVILLE    FAIR      60  43  53 E8        29.90S                  
CARIBOU        PTSUNNY   57  44  62 E8        29.90R                  
$$

NHZ002-005-008-009-011-012-014-241700-
NEW HAMPSHIRE
  
CITY           SKY/WX    TMP DP  RH WIND       PRES   REMARKS
PORTSMOUTH     PTSUNNY   67  47  49 NW21G31   29.72R                  
ROCHESTER      PTSUNNY   65  46  50 N21G30    29.74R                  
NASHUA         CLOUDY    67  50  54 N15G30    29.77R                  
MANCHESTER     PTSUNNY   66  48  52 NW23G32   29.75R                  
CONCORD        CLOUDY    64  49  57 NW17G33   29.77R                  
LACONIA        FAIR      63  48  58 NW18G33   29.79R                  
PLYMOUTH       PTSUNNY   61  48  62 NW16G22   29.82R                  
BERLIN         CLOUDY    56  45  66 MISG      29.84R                  
WHITEFIELD     CLOUDY    54  46  74 N14       29.86R                  
JAFFREY        CLOUDY    64  47  53 MISG      29.81R                  
KEENE          PTSUNNY   67  50  54 N23G29    29.81R                  
LEBANON        PTSUNNY   63  49  60 N10G24    29.84R                  
MT WASHINGTON  NOT AVBL                                               
$$

VTZ005-007-008-241700-
VERMONT
  
CITY           SKY/WX    TMP DP  RH WIND       PRES   REMARKS
ST JOHNSBURY     N/A     55  49  80 MISG      29.88R                  
MONTPELIER     CLOUDY    53  48  83 NW14      29.94R                  
BURLINGTON     CLOUDY    59  52  77 N14G24    29.93R                  
$$

MAZ007-012-024-CTZ003-RIZ002-NYZ038-NYZ072-241700-
SOUTHERN NEW ENGLAND AND NY
  
CITY           SKY/WX    TMP DP  RH WIND       PRES   REMARKS
BOSTON         PTSUNNY   71  48  43 NW29G38   29.72R                  
WORCESTER      PTSUNNY   65  47  52 NW23G48   29.78R                  
NANTUCKET      FAIR      72  53  51 NW23G36   29.67R                  
PROVIDENCE     PTSUNNY   71  52  50 NW24G35   29.74R                  
HARTFORD       PTSUNNY   68  51  54 NW16G28   29.83R                  
ALBANY         PTSUNNY   67  52  58 NW17G30   29.90R                  
NEW YORK CITY  FAIR      71  49  45 NW20G31   29.87R                  
$$

ANZ081-ANZ082-ANZ150-NHZ014-MEZ023>029-241700-
COASTAL MARINE OBSERVATIONS
  
STATION/POSITION TIME  TEMP    WIND        PRES    WAVE
                       AIR SEA DIR/SP/G            HT/PER
                 (UTC) (F)     (DEG/KT/KT) (MB)    (FT/S)
ISLE OF SHOALS   1500   60      10/ 26/ 28 1004.5R
JEFFREYS LEDGE   1538      48                N/A     4/ 8
GEORGES BANK BUO 1550   49 44  260/ 14/ 17 1002.7F   8/ 8
$$

.............KEY..............
   WCI - WIND CHILL
   TC  - TEMPERATURE IN CELSIUS
   VSB - VISIBILITY IN MILES
   HX  - HEAT INDEX
   FAIR- INDICATES FEW OR NO CLOUDS BELOW 12,000 FT, WITH NO 
         SIGNIFICANT WEATHER AND/OR OBSTRUCTIONS TO VISIBILITY.